When you browse on this site, cookies collect data to enhance your experience and personalize the content and advertising you see.
Visit our Privacy Policy to learn more. By continuing to use the site, you agree to this use of cookies and data.
  • En España
  • Lista de países
  • Para 7 días
  • Temperatura del agua
  • Mapa Satelital
  • El tiempo en el mapa
  • Informadores
  • user-avatar
    Iniciar sesión

    Tiempo cada hora Chervoni Khatky

    Hoy, 24 Mayo, Viernes

    Tiempo Temperatura Precipitaciones Viento Presión Humedad
    00:00 +15°C° 0.3 mm 1 mps 734 mmHg 85%
    01:00 +15°C° 0.3 mm 1 mps 734 mmHg 86%
    02:00 +15°C° 0 mm 1 mps 734 mmHg 88%
    03:00 +15°C° 0 mm 1 mps 734 mmHg 88%
    04:00 +14°C° 0 mm 1 mps 734 mmHg 88%
    05:00 +14°C° 0 mm 1 mps 734 mmHg 88%
    06:00 +16°C° 0 mm 1 mps 734 mmHg 84%
    07:00 +19°C° 0 mm 1 mps 735 mmHg 80%
    08:00 +19°C° 0 mm 0 mps 735 mmHg 75%
    09:00 +22°C° 0.8 mm 1 mps 735 mmHg 69%
    10:00 +23°C° 0.8 mm 1 mps 734 mmHg 64%
    11:00 +24°C° 0.8 mm 2 mps 734 mmHg 59%
    12:00 +24°C° 1.3 mm 2 mps 734 mmHg 60%
    13:00 +24°C° 1.3 mm 2 mps 734 mmHg 62%
    14:00 +24°C° 1.3 mm 2 mps 734 mmHg 63%
    15:00 +24°C° 0.6 mm 1 mps 734 mmHg 66%
    16:00 +24°C° 0.6 mm 1 mps 734 mmHg 69%
    17:00 +24°C° 0.6 mm 1 mps 733 mmHg 72%
    18:00 +22°C° 1 mm 1 mps 733 mmHg 74%
    19:00 +20°C° 1 mm 1 mps 733 mmHg 77%
    20:00 +19°C° 1 mm 1 mps 733 mmHg 80%
    21:00 +18°C° 0.1 mm 1 mps 733 mmHg 81%
    22:00 +18°C° 0.1 mm 1 mps 733 mmHg 83%
    23:00 +16°C° 0.1 mm 1 mps 733 mmHg 85%

    Mañana, 25 Mayo, Sábado

    Tiempo Temperatura Precipitaciones Viento Presión Humedad
    00:00 +16°C° 0 mm 1 mps 733 mmHg 86%
    01:00 +15°C° 0 mm 1 mps 733 mmHg 88%
    02:00 +15°C° 0 mm 1 mps 733 mmHg 89%
    03:00 +15°C° 0.2 mm 1 mps 733 mmHg 90%
    04:00 +15°C° 0.2 mm 1 mps 732 mmHg 90%
    05:00 +13°C° 0.2 mm 0 mps 732 mmHg 91%
    06:00 +16°C° 0.5 mm 1 mps 732 mmHg 89%
    07:00 +18°C° 0.5 mm 1 mps 733 mmHg 87%
    08:00 +19°C° 0.5 mm 2 mps 733 mmHg 84%
    09:00 +20°C° 0.6 mm 2 mps 733 mmHg 78%
    10:00 +21°C° 0.6 mm 3 mps 733 mmHg 72%
    11:00 +24°C° 0.6 mm 3 mps 733 mmHg 66%
    12:00 +22°C° 1.1 mm 3 mps 733 mmHg 68%
    13:00 +22°C° 1.1 mm 4 mps 733 mmHg 71%
    14:00 +22°C° 1.1 mm 4 mps 733 mmHg 73%
    15:00 +22°C° 0.2 mm 4 mps 733 mmHg 74%
    16:00 +22°C° 0.2 mm 4 mps 733 mmHg 74%
    17:00 +22°C° 0.2 mm 4 mps 733 mmHg 75%
    18:00 +20°C° 0.5 mm 3 mps 733 mmHg 79%
    19:00 +18°C° 0.5 mm 3 mps 733 mmHg 84%
    20:00 +17°C° 0.5 mm 3 mps 733 mmHg 89%
    21:00 +16°C° 0.3 mm 3 mps 734 mmHg 91%
    22:00 +16°C° 0.3 mm 3 mps 734 mmHg 93%
    23:00 +14°C° 0.3 mm 3 mps 734 mmHg 95%

    Pasado mañana, 26 Mayo, Domingo

    Tiempo Temperatura Precipitaciones Viento Presión Humedad
    00:00 +14°C° 0 mm 3 mps 734 mmHg 95%
    01:00 +13°C° 0 mm 3 mps 734 mmHg 96%
    02:00 +13°C° 0 mm 3 mps 735 mmHg 96%
    03:00 +12°C° 0 mm 3 mps 735 mmHg 96%
    04:00 +12°C° 0 mm 3 mps 735 mmHg 95%
    05:00 +12°C° 0 mm 3 mps 735 mmHg 95%
    06:00 +13°C° 0 mm 3 mps 736 mmHg 91%
    07:00 +16°C° 0 mm 3 mps 736 mmHg 88%
    08:00 +17°C° 0 mm 3 mps 736 mmHg 84%
    09:00 +18°C° 0 mm 3 mps 736 mmHg 78%
    10:00 +20°C° 0 mm 4 mps 736 mmHg 72%
    11:00 +21°C° 0 mm 4 mps 737 mmHg 66%
    12:00 +21°C° 0 mm 4 mps 737 mmHg 65%
    13:00 +21°C° 0 mm 5 mps 737 mmHg 63%
    14:00 +22°C° 0 mm 5 mps 737 mmHg 61%
    15:00 +21°C° 0 mm 4 mps 736 mmHg 65%
    16:00 +21°C° 0 mm 4 mps 736 mmHg 69%
    17:00 +21°C° 0 mm 3 mps 736 mmHg 72%
    18:00 +19°C° 0 mm 3 mps 736 mmHg 77%
    19:00 +18°C° 0 mm 2 mps 736 mmHg 81%
    20:00 +17°C° 0 mm 2 mps 736 mmHg 85%
    21:00 +16°C° 0 mm 2 mps 736 mmHg 87%
    22:00 +16°C° 0 mm 3 mps 737 mmHg 89%
    23:00 +14°C° 0 mm 3 mps 737 mmHg 91%

    27 Mayo, Lunes

    Tiempo Temperatura Precipitaciones Viento Presión Humedad
    00:00 +14°C° 0.1 mm 3 mps 737 mmHg 92%
    01:00 +14°C° 0.1 mm 3 mps 737 mmHg 93%
    02:00 +14°C° 0.1 mm 3 mps 737 mmHg 94%
    03:00 +14°C° 0 mm 3 mps 737 mmHg 94%
    04:00 +14°C° 0 mm 2 mps 737 mmHg 94%
    05:00 +14°C° 0 mm 2 mps 737 mmHg 94%
    06:00 +16°C° 0 mm 2 mps 737 mmHg 89%
    07:00 +18°C° 0 mm 2 mps 738 mmHg 85%
    08:00 +19°C° 0 mm 2 mps 738 mmHg 80%
    09:00 +21°C° 0.1 mm 3 mps 738 mmHg 76%
    10:00 +22°C° 0.1 mm 3 mps 738 mmHg 73%
    11:00 +23°C° 0.1 mm 4 mps 738 mmHg 69%
    12:00 +25°C° 0.4 mm 4 mps 738 mmHg 68%
    13:00 +25°C° 0.4 mm 4 mps 738 mmHg 66%
    14:00 +26°C° 0.4 mm 4 mps 738 mmHg 65%
    15:00 +26°C° 0.1 mm 3 mps 738 mmHg 65%
    16:00 +26°C° 0.1 mm 3 mps 737 mmHg 66%
    17:00 +26°C° 0.1 mm 2 mps 737 mmHg 66%
    18:00 +24°C° 0 mm 2 mps 737 mmHg 71%
    19:00 +23°C° 0 mm 2 mps 737 mmHg 75%
    20:00 +20°C° 0 mm 2 mps 737 mmHg 80%
    21:00 +19°C° 0 mm 2 mps 737 mmHg 82%
    22:00 +19°C° 0 mm 2 mps 737 mmHg 84%
    23:00 +18°C° 0 mm 3 mps 737 mmHg 86%

    28 Mayo, Martes

    Tiempo Temperatura Precipitaciones Viento Presión Humedad
    00:00 +18°C° 0 mm 3 mps 737 mmHg 87%
    01:00 +18°C° 0 mm 3 mps 737 mmHg 87%
    02:00 +17°C° 0 mm 4 mps 737 mmHg 87%
    03:00 +17°C° 0 mm 4 mps 737 mmHg 85%
    04:00 +17°C° 0 mm 4 mps 736 mmHg 83%
    05:00 +17°C° 0 mm 4 mps 736 mmHg 80%
    06:00 +17°C° 0 mm 5 mps 736 mmHg 78%
    07:00 +19°C° 0 mm 6 mps 736 mmHg 75%
    08:00 +20°C° 0 mm 6 mps 736 mmHg 72%
    09:00 +21°C° 0 mm 7 mps 736 mmHg 69%
    10:00 +22°C° 0 mm 7 mps 736 mmHg 66%
    11:00 +23°C° 0 mm 8 mps 736 mmHg 64%
    12:00 +24°C° 0 mm 8 mps 736 mmHg 63%
    13:00 +24°C° 0 mm 8 mps 735 mmHg 63%
    14:00 +26°C° 0 mm 8 mps 735 mmHg 63%
    15:00 +26°C° 0 mm 7 mps 735 mmHg 65%
    16:00 +24°C° 0 mm 7 mps 734 mmHg 68%
    17:00 +24°C° 0 mm 6 mps 734 mmHg 70%
    18:00 +23°C° 0 mm 6 mps 734 mmHg 72%
    19:00 +21°C° 0 mm 6 mps 734 mmHg 74%
    20:00 +20°C° 0 mm 5 mps 734 mmHg 76%
    21:00 +19°C° 0 mm 5 mps 734 mmHg 75%
    22:00 +19°C° 0 mm 5 mps 734 mmHg 74%
    23:00 +17°C° 0 mm 5 mps 733 mmHg 73%

    29 Mayo, Miércoles

    Tiempo Temperatura Precipitaciones Viento Presión Humedad
    00:00 +17°C° 0 mm 5 mps 733 mmHg 76%
    01:00 +16°C° 0 mm 5 mps 733 mmHg 79%
    02:00 +16°C° 0 mm 5 mps 733 mmHg 82%
    03:00 +15°C° 0.1 mm 5 mps 733 mmHg 86%
    04:00 +15°C° 0.1 mm 4 mps 733 mmHg 89%
    05:00 +15°C° 0.1 mm 4 mps 734 mmHg 93%
    06:00 +17°C° 0 mm 4 mps 734 mmHg 90%
    07:00 +18°C° 0 mm 4 mps 734 mmHg 88%
    08:00 +19°C° 0 mm 4 mps 735 mmHg 86%
    09:00 +21°C° 0.1 mm 4 mps 735 mmHg 80%
    10:00 +24°C° 0.1 mm 3 mps 735 mmHg 75%
    11:00 +25°C° 0.1 mm 3 mps 735 mmHg 70%
    12:00 +26°C° 0.4 mm 3 mps 735 mmHg 66%
    13:00 +27°C° 0.4 mm 4 mps 735 mmHg 62%
    14:00 +28°C° 0.4 mm 4 mps 735 mmHg 58%
    15:00 +27°C° 0.6 mm 4 mps 735 mmHg 63%
    16:00 +26°C° 0.6 mm 3 mps 735 mmHg 69%
    17:00 +26°C° 0.6 mm 3 mps 735 mmHg 74%
    18:00 +24°C° 0.1 mm 2 mps 735 mmHg 77%
    19:00 +23°C° 0.1 mm 2 mps 736 mmHg 80%
    20:00 +21°C° 0.1 mm 1 mps 736 mmHg 83%
    21:00 +21°C° 0 mm 1 mps 736 mmHg 85%
    22:00 +20°C° 0 mm 1 mps 736 mmHg 86%
    23:00 +19°C° 0 mm 1 mps 737 mmHg 88%
    Mostrar más